STARLINK-11521, 62597

Orbit data source: Space-Track

STARLINK-11521, 62597 is a payload satellite owned by SpaceX/Seattle (US) in LEO that was launched on Mon, 13 Jan 2025 UTC via an FALCON 9 launch vehicle from the Air Force Eastern Test Range (AFETR). Payloads include a variety of satellites, spacecraft, and rockets equipped with specific instruments for various scientific and technological missions. These include communications satellites like Starlink; space stations such as the ISS; scientific satellites like the Hubble; Earth observation satellites from companies like Planet Labs, Umbra, and HawkEye 360; GPS; miniature CubeSats for education and research; and military/defense satellites.

Loading next visibility...
STARLINK-11521 details
Identifier
62597, 2025-008L
Orbit
LEO
Last TLE update14 hours ago
Origin
Flag of USSpaceX/Seattle (US)
ManufacturerSpaceX/Seattle
MissionOperational spacecraft
Bus & MotorSTARLINK V2M, Unknown motor
Mass730 kg wet, ~700 kg dry
Launch date (UTC)
2025-01-13 (3 weeks ago)
Launch vehicle
FALCON 9
Launch site
Air Force Eastern Test Range (AFETR)
Object type
Payload
Rocket body
Debris
Shape & HBRUnknown
Radar Cross SectionLarge (>1 m²)

Expand to show TLE details & history

TLE from 14 hours ago
0 STARLINK-11521
1 62597U 25008L   25035.58335648 -.00054042  00000-0 -30915-3 0  9999
2 62597  43.0029   7.5423 0001884 274.8210  74.8538 15.77890474  4679
Epoch: 2025-02-04T14:00Z
Definitive object data (Epoch: 2025-02-04T14:00:01.999Z)
Latitude-7.10822°
Longitude14.90671°
Altitude337.054 km
Speed7.708 km/s
True Right ascension23h 59m 36s
True Declination-7° 03' 49"
Sunlit
Object was in daylight at TLE epoch
Visualization TLE readout
Latitude34.48317°
Longitude66.08757°
Altitude338.858 km
Speed7.71 km/s
Apparent Right ascension23h 21m 30s
Apparent Declination-4° 41' 52"
Sunlit
Object is in daylight
Visualization observer readout
Local Sidereal Time05:58:54
Azimuth272.391° WNW
Elevation-10.179°
Doppler factor1
Orbital elements
Apogee altitude339.671 km
Perigee altitude337.14 km
Semi-major axis6,716.543 km
Eccentricity0.0001884
Inclination43.0029°
RAAN7.5423°
Arg. of periapsis274.821°
True anomaly74.87464°
Mean anomaly74.8538°
Eccentric anomaly74.86422°
Mean motion3.94298 °/min
BSTAR-0.00030915
Orbital period91.3 mins
Loading maneuver chart data...
Loading historical data...
Loading historical data...
Loading historical data...
Loading historical data...
Loading historical data...
Loading historical data...
Loading historical data...

STARLINK-11521 Visibility forecast

Observer location: undefined°, undefined

Span
Click to sort rows by Start time (UTC) header in descending order
Start Az.
Max El. time (UTC)
Max El. Az.
Max El.
End time (UTC)
End Az.
4 mins2025-02-05 04:03:08.250Z288.387° WNW2025-02-05 04:05:08.250Z342.794° N32.997°2025-02-05 04:07:08.250Z63.589° ENE
4 mins2025-02-06 01:13:08.250Z214.014° SW2025-02-06 01:15:08.250Z129.631° SE30.72°2025-02-06 01:17:08.250Z84.296° E
|